Regional Weather Roundup
Issued by NWS

Home | Current Version | Previous Version | Graphics & Text | Print | Product List | Glossary Off
Versions: 1 2 3 4 5 6 7 8 9 10 11 12 13 14 15 16 17 18 19 20 21 22 23 24 25 26 27 28 29 30 31 32 33 34 35 36 37 38 39 40 41 42 43 44 45 46 47 48 49 50

000
ASUS44 KMEG 310710
RWRTN
TENNESSEE HOURLY STATE WEATHER ROUNDUP
NATIONAL WEATHER SERVICE MEMPHIS TN
100 AM CST SAT JAN 31 2015

TNZ002-004-019-021-049-052-054-088>092-310800-
WEST TENNESSEE

CITY           SKY/WX    TMP DP  RH WIND       PRES   REMARKS
MEMPHIS INTL   CLOUDY    38  24  57 NE7       30.40F WCI  33
NWS MEMPHIS      N/A     32 N/A N/A MISG        N/A
JACKSON        CLOUDY    30  24  78 CALM      30.41F
DYERSBURG      MOCLDY    32  12  43 NE3       30.44F
UNION CITY     CLEAR     25  21  86 CALM      30.40F
PARIS          CLEAR     27  18  69 CALM      30.42S
LEXINGTON      CLEAR     25  19  80 CALM      30.40F
SAVANNAH       CLEAR     27  23  86 CALM      30.40F
$$

TNZ008-025-027-028-033-062-065-066-310800-
NORTH MIDDLE TENNESSEE

CITY           SKY/WX    TMP DP  RH WIND       PRES   REMARKS
NASHVILLE      CLEAR     27  20  75 CALM      30.42S
CLARKSVILLE    PTCLDY    26  21  81 CALM      30.42F
SMYRNA         CLEAR     23  21  92 CALM      30.43F
COOKEVILLE     CLEAR     19  18  93 CALM      30.38F
CROSSVILLE     CLEAR     26  16  65 NE6       30.35F WCI  19
$$

TNZ061-075-076-078-094-096-097-310800-
SOUTH MIDDLE TENNESSEE

CITY           SKY/WX    TMP DP  RH WIND       PRES   REMARKS
FAYETTEVILLE   CLEAR     27  18  69 MISG      30.37F
TULLAHOMA      CLEAR     23  18  80 CALM      30.38S
WINCHESTER     CLEAR     19  19 100 CALM      30.39S
MCMINNVILLE    CLEAR     25  19  80 CALM      30.39R
COLUMBIA       CLEAR     25  25 100 CALM      30.39F
SHELBYVILLE    CLEAR     21  21 100 CALM      30.40F
$$

TNZ017-018-042-046-047-310800-
NORTHEAST TENNESSEE

CITY           SKY/WX    TMP DP  RH WIND       PRES   REMARKS
TRI CITIES     CLEAR     21  14  74 CALM      30.37S
ELIZABETHTON   SUNNY     19  12  73 CALM      30.36R
$$

TNZ012-013-036-069-073-074-310800-
CENTRAL EAST TENNESSEE

CITY           SKY/WX    TMP DP  RH WIND       PRES   REMARKS
KNOXVILLE      CLEAR     28  17  63 NE6       30.40S WCI  22
OAK RIDGE      CLEAR     29  16  58 CALM      30.41S
GATLINBURG     SUNNY     19  18  93 CALM      30.40S
MORRISTOWN     SUNNY     25  16  68 CALM      30.38S
$$

TNZ083-085-099-310800-
SOUTHEAST TENNESSEE

CITY           SKY/WX    TMP DP  RH WIND       PRES   REMARKS
CHATTANOOGA    CLEAR     29  22  75 CALM      30.40S
$$

SKY/WX REPORTED AS FAIR MEANS FEW OR NO CLOUDS BELOW
12 THOUSAND FEET.



USA.gov is the U.S. government's official web portal to all federal, state and local government web resources and services.